{"data":{"norad_id":62622,"epoch":"2026-09-19T11:02:50.132544Z","epoch_age_seconds":108081,"freshness":"FRESH","line1":"1 62622U 25009P   26262.46030246  .00005988  00000+0  21214-3 0  9999","line2":"2 62622  97.3900 342.7793 0004288  10.1984 349.9343 15.29478316 93269","mean_motion":15.29478316,"eccentricity":0.0004288,"inclination_deg":97.39,"raan_deg":342.7793,"arg_perigee_deg":10.1984,"mean_anomaly_deg":349.9343,"bstar":0.00021214,"rev_number":9326,"period_min":94.149749292686,"perigee_km":474.43109328986,"apogee_km":480.3103767234,"semimajor_km":6855.5077350066,"source":"CELESTRAK","updated_at":"2026-09-20T09:00:34.717463Z"}}